Location: Arrodets-la-Barthe
(43.0306°N, 0.2829°E)
Time: 18:29:11
(UTC+00:00)

IRS-P2 Rocket - Pass Details

Date: 24 October 2021
Orbit: 794 x 876 km, 99.1° (Epoch: 02 December)

Event Time Altitude Azimuth Distance (km) Brightness Sun altitude
Exits shadow 19:22:35 82° 116° (ESE) 810 4.4 -26.3°
Maximum altitude 19:22:45 84° 75° (ENE) 807 4.4 -26.3°
Drops below altitude 10° 19:27:59 10° 347° (NNW) 2,372 7.3 -27.3°
Sets 19:30:19 0° 347° (NNW) 3,307 8.1 -27.7°
